| time (UTC) | temp F | wind direction | speed MPH | gust MPH | rain 1hr in | rain 24hr in | rain mn in | humidity % | barometer mb |
| 20260507113520 | 59 | 180 | 5.0 | 10.0 | 0.00 | 0.00 | 0.00 | 64 | 1016.2 |
| 20260507112519 | 58 | 203 | 6.0 | 12.0 | 0.00 | 0.00 | 0.00 | 63 | 1016.2 |
| 20260507111519 | 59 | 180 | 6.0 | 13.0 | 0.00 | 0.00 | 0.00 | 62 | 1016.2 |
| 20260507110521 | 59 | 180 | 5.0 | 12.0 | 0.00 | 0.00 | 0.00 | 63 | 1016.3 |
| 20260507105519 | 59 | 203 | 5.0 | 11.0 | 0.00 | 0.00 | 0.00 | 64 | 1016.4 |
| 20260507104540 | 59 | 203 | 5.0 | 10.0 | 0.00 | 0.00 | 0.00 | 66 | 1016.4 |
| 20260507103520 | 58 | 203 | 5.0 | 11.0 | 0.00 | 0.00 | 0.00 | 66 | 1016.3 |
| 20260507102519 | 58 | 180 | 6.0 | 11.0 | 0.00 | 0.00 | 0.00 | 65 | 1016.4 |
| 20260507101519 | 59 | 180 | 5.0 | 12.0 | 0.00 | 0.00 | 0.00 | 66 | 1016.5 |
| 20260507100519 | 58 | 180 | 5.0 | 10.0 | 0.00 | 0.00 | 0.00 | 68 | 1016.3 |
| 20260507095538 | 57 | 203 | 6.0 | 10.0 | 0.00 | 0.00 | 0.00 | 69 | 1016.2 |
| 20260507094519 | 58 | 180 | 4.0 | 9.0 | 0.00 | 0.00 | 0.00 | 69 | 1016.2 |
| 20260507093538 | 58 | 180 | 3.0 | 10.0 | 0.00 | 0.00 | 0.00 | 68 | 1016.3 |
| 20260507092519 | 58 | 203 | 3.0 | 7.0 | 0.00 | 0.00 | 0.00 | 68 | 1016.1 |
| 20260507091539 | 58 | 203 | 4.0 | 10.0 | 0.00 | 0.00 | 0.00 | 67 | 1016.3 |
| 20260507090518 | 57 | 180 | 4.0 | 8.0 | 0.00 | 0.00 | 0.00 | 70 | 1016.4 |
| 20260507085519 | 57 | 180 | 2.0 | 4.0 | 0.00 | 0.00 | 0.00 | 72 | 1016.5 |
| 20260507084519 | 57 | 113 | 3.0 | 8.0 | 0.00 | 0.00 | 0.00 | 71 | 1016.2 |
| 20260507083519 | 56 | 180 | 3.0 | 5.0 | 0.00 | 0.00 | 0.00 | 74 | 1016.4 |
| 20260507082519 | 55 | 203 | 3.0 | 5.0 | 0.00 | 0.00 | 0.00 | 76 | 1016.1 |
| 20260507081539 | 55 | 180 | 2.0 | 5.0 | 0.00 | 0.00 | 0.00 | 76 | 1016.4 |
| 20260507080539 | 54 | 113 | 1.0 | 4.0 | 0.00 | 0.00 | 0.00 | 78 | 1016.3 |
| 20260507075539 | 53 | 113 | 2.0 | 3.0 | 0.00 | 0.00 | 0.00 | 78 | 1016.3 |
| 20260507074519 | 52 | 68 | 2.0 | 4.0 | 0.00 | 0.00 | 0.00 | 79 | 1016.1 |
| 20260507073520 | 52 | 68 | 1.0 | 5.0 | 0.00 | 0.00 | 0.00 | 79 | 1016.0 |
| 20260507072539 | 51 | 68 | 3.0 | 4.0 | 0.00 | 0.00 | 0.00 | 79 | 1016.0 |
| 20260507071519 | 51 | 45 | 1.0 | 2.0 | 0.00 | 0.00 | 0.00 | 80 | 1016.0 |
| 20260507070524 | 50 | 45 | 1.0 | 3.0 | 0.00 | 0.00 | 0.00 | 81 | 1015.9 |
| 20260507065519 | 50 | 68 | 2.0 | 4.0 | 0.00 | 0.00 | 0.00 | 81 | 1015.8 |
| 20260507064520 | 49 | 68 | 2.0 | 4.0 | 0.00 | 0.00 | 0.00 | 82 | 1015.7 |
| 20260507063520 | 48 | 68 | 2.0 | 3.0 | 0.00 | 0.00 | 0.00 | 82 | 1015.7 |
| 20260507062519 | 48 | 45 | 1.0 | 3.0 | 0.00 | 0.00 | 0.00 | 83 | 1015.6 |
| 20260507061519 | 47 | 45 | 1.0 | 3.0 | 0.00 | 0.00 | 0.00 | 84 | 1015.6 |
| 20260507060534 | 47 | 45 | 1.0 | 2.0 | 0.00 | 0.00 | 0.00 | 84 | 1015.8 |
| 20260507055520 | 46 | 0.0 | 0.0 | 0.00 | 0.00 | 0.00 | 85 | 1015.8 | |
| 20260507054520 | 46 | 0.0 | 0.0 | 0.00 | 0.00 | 0.00 | 85 | 1015.7 | |
| 20260507053519 | 46 | 0.0 | 0.0 | 0.00 | 0.00 | 0.00 | 85 | 1015.7 | |
| 20260507052519 | 46 | 0.0 | 0.0 | 0.00 | 0.00 | 0.00 | 84 | 1015.5 | |
| 20260507051539 | 46 | 0.0 | 0.0 | 0.00 | 0.00 | 0.00 | 84 | 1015.5 | |
| 20260507050539 | 46 | 0.0 | 0.0 | 0.00 | 0.00 | 0.00 | 83 | 1015.5 | |
| 20260507045519 | 46 | 0.0 | 2.0 | 0.00 | 0.00 | 0.00 | 83 | 1015.5 | |
| 20260507044603 | 46 | 45 | 1.0 | 2.0 | 0.00 | 0.00 | 0.00 | 83 | 1015.3 |
| 20260507043520 | 46 | 68 | 2.0 | 4.0 | 0.00 | 0.00 | 0.00 | 83 | 1015.2 |
| 20260507042539 | 46 | 68 | 2.0 | 4.0 | 0.00 | 0.00 | 0.00 | 82 | 1015.2 |
| 20260507041520 | 47 | 68 | 1.0 | 4.0 | 0.00 | 0.00 | 0.00 | 82 | 1015.2 |
| 20260507040519 | 47 | 90 | 1.0 | 4.0 | 0.00 | 0.00 | 0.00 | 82 | 1015.2 |
| 20260507035517 | 47 | 90 | 2.0 | 4.0 | 0.00 | 0.00 | 0.00 | 81 | 1015.2 |
| 20260507034519 | 47 | 90 | 3.0 | 5.0 | 0.00 | 0.00 | 0.00 | 81 | 1015.1 |
| 20260507033519 | 48 | 90 | 3.0 | 5.0 | 0.00 | 0.00 | 0.00 | 81 | 1015.1 |
| 20260507032518 | 48 | 113 | 2.0 | 6.0 | 0.00 | 0.00 | 0.00 | 81 | 1015.1 |
| 20260507031524 | 48 | 90 | 3.0 | 5.0 | 0.00 | 0.00 | 0.00 | 81 | 1015.1 |
| 20260507030538 | 48 | 68 | 3.0 | 6.0 | 0.00 | 0.00 | 0.00 | 82 | 1015.1 |
| 20260507025519 | 48 | 90 | 2.0 | 3.0 | 0.00 | 0.00 | 0.00 | 82 | 1015.3 |
| 20260507024518 | 48 | 68 | 3.0 | 5.0 | 0.00 | 0.00 | 0.00 | 82 | 1015.3 |
| 20260507023519 | 48 | 90 | 2.0 | 3.0 | 0.00 | 0.00 | 0.00 | 83 | 1015.3 |
| 20260507022633 | 48 | 90 | 1.0 | 4.0 | 0.00 | 0.00 | 0.00 | 83 | 1015.3 |
| 20260507021519 | 49 | 90 | 3.0 | 6.0 | 0.00 | 0.00 | 0.00 | 83 | 1015.3 |
| 20260507020518 | 49 | 90 | 1.0 | 4.0 | 0.00 | 0.00 | 0.00 | 83 | 1015.3 |
| 20260507015518 | 49 | 90 | 2.0 | 3.0 | 0.00 | 0.00 | 0.00 | 84 | 1015.1 |
| 20260507014537 | 49 | 90 | 2.0 | 4.0 | 0.00 | 0.00 | 0.00 | 83 | 1015.1 |
| 20260507013518 | 49 | 90 | 2.0 | 4.0 | 0.00 | 0.00 | 0.00 | 83 | 1015.2 |
| 20260507012519 | 49 | 90 | 2.0 | 3.0 | 0.00 | 0.00 | 0.00 | 83 | 1015.0 |
| 20260507011519 | 49 | 90 | 3.0 | 5.0 | 0.00 | 0.00 | 0.00 | 83 | 1015.0 |
| 20260507010523 | 49 | 203 | 2.0 | 3.0 | 0.00 | 0.00 | 0.00 | 82 | 1015.1 |
| 20260507005520 | 49 | 203 | 2.0 | 3.0 | 0.00 | 0.00 | 0.00 | 82 | 1015.0 |
| 20260507004518 | 50 | 203 | 1.0 | 2.0 | 0.00 | 0.00 | 0.00 | 82 | 1015.0 |
| 20260507003541 | 50 | 0.0 | 2.0 | 0.00 | 0.00 | 0.00 | 81 | 1015.0 | |
| 20260507002522 | 50 | 225 | 2.0 | 3.0 | 0.00 | 0.00 | 0.00 | 81 | 1015.2 |
| 20260507001517 | 50 | 0.0 | 3.0 | 0.00 | 0.00 | 0.00 | 81 | 1015.2 | |
| 20260507000523 | 50 | 0.0 | 0.0 | 0.00 | 0.00 | 0.00 | 80 | 1015.2 | |
| 20260506235538 | 50 | 0.0 | 2.0 | 0.00 | 0.00 | 0.00 | 80 | 1015.2 | |
| 20260506234519 | 50 | 0.0 | 1.0 | 0.00 | 0.00 | 0.00 | 80 | 1015.2 | |
| 20260506233518 | 50 | 0.0 | 0.0 | 0.00 | 0.00 | 0.00 | 81 | 1015.3 | |
| 20260506232518 | 50 | 0.0 | 2.0 | 0.00 | 0.00 | 0.00 | 79 | 1015.4 | |
| 20260506231518 | 50 | 0.0 | 2.0 | 0.00 | 0.00 | 0.00 | 79 | 1015.3 | |
| 20260506230519 | 51 | 0.0 | 2.0 | 0.00 | 0.00 | 0.00 | 79 | 1015.3 | |
| 20260506225519 | 51 | 0.0 | 2.0 | 0.00 | 0.00 | 0.00 | 79 | 1015.3 | |
| 20260506224518 | 51 | 0.0 | 1.0 | 0.00 | 0.00 | 0.00 | 79 | 1015.3 | |
| 20260506223524 | 51 | 0.0 | 0.0 | 0.00 | 0.00 | 0.00 | 79 | 1015.4 | |
| 20260506222518 | 51 | 0.0 | 0.0 | 0.00 | 0.00 | 0.00 | 77 | 1015.3 | |
| 20260506221518 | 51 | 0.0 | 2.0 | 0.00 | 0.00 | 0.00 | 77 | 1015.0 | |
| 20260506220518 | 51 | 0.0 | 1.0 | 0.00 | 0.00 | 0.00 | 77 | 1015.0 | |
| 20260506215518 | 51 | 0.0 | 0.0 | 0.00 | 0.00 | 0.00 | 76 | 1015.1 | |
| 20260506214538 | 52 | 225 | 1.0 | 2.0 | 0.00 | 0.00 | 0.00 | 75 | 1015.0 |
| 20260506213526 | 52 | 225 | 1.0 | 2.0 | 0.00 | 0.00 | 0.00 | 74 | 1015.3 |
| 20260506212538 | 52 | 225 | 1.0 | 2.0 | 0.00 | 0.00 | 0.00 | 74 | 1015.3 |
| 20260506211523 | 52 | 0.0 | 1.0 | 0.00 | 0.00 | 0.00 | 73 | 1015.1 | |
| 20260506210521 | 52 | 225 | 1.0 | 3.0 | 0.00 | 0.00 | 0.00 | 72 | 1015.1 |
| 20260506205524 | 53 | 248 | 2.0 | 3.0 | 0.00 | 0.00 | 0.00 | 72 | 1015.1 |
| 20260506204519 | 53 | 248 | 3.0 | 6.0 | 0.00 | 0.00 | 0.00 | 71 | 1014.8 |
| 20260506203528 | 53 | 225 | 1.0 | 4.0 | 0.00 | 0.00 | 0.00 | 73 | 1014.8 |
| 20260506202538 | 53 | 90 | 1.0 | 3.0 | 0.00 | 0.00 | 0.00 | 72 | 1014.8 |
| 20260506201546 | 54 | 0.0 | 1.0 | 0.00 | 0.00 | 0.00 | 71 | 1014.6 | |
| 20260506195538 | 55 | 0.0 | 1.0 | 0.00 | 0.00 | 0.00 | 69 | 1014.8 | |
| 20260506194539 | 55 | 0.0 | 1.0 | 0.00 | 0.00 | 0.00 | 69 | 1014.6 | |
| 20260506193517 | 55 | 0.0 | 0.0 | 0.00 | 0.00 | 0.00 | 68 | 1014.5 | |
| 20260506192518 | 56 | 0.0 | 1.0 | 0.00 | 0.00 | 0.00 | 66 | 1014.5 | |
| 20260506191518 | 56 | 0.0 | 1.0 | 0.00 | 0.00 | 0.00 | 65 | 1014.5 | |
| 20260506190520 | 56 | 0.0 | 1.0 | 0.00 | 0.00 | 0.00 | 64 | 1014.4 | |
| 20260506185518 | 57 | 0.0 | 1.0 | 0.00 | 0.00 | 0.00 | 62 | 1014.6 | |
| 20260506184518 | 57 | 90 | 1.0 | 2.0 | 0.00 | 0.00 | 0.00 | 57 | 1014.2 |
| 20260506183539 | 57 | 90 | 2.0 | 3.0 | 0.00 | 0.00 | 0.00 | 55 | 1014.4 |
| 20260506182518 | 57 | 90 | 2.0 | 4.0 | 0.00 | 0.00 | 0.00 | 55 | 1014.4 |
| 20260506181538 | 58 | 90 | 1.0 | 3.0 | 0.00 | 0.00 | 0.00 | 56 | 1014.4 |
| 20260506180518 | 58 | 90 | 1.0 | 2.0 | 0.00 | 0.00 | 0.00 | 55 | 1014.5 |
| 20260506175543 | 58 | 90 | 1.0 | 2.0 | 0.00 | 0.00 | 0.00 | 55 | 1014.3 |
| 20260506174520 | 58 | 68 | 1.0 | 3.0 | 0.00 | 0.00 | 0.00 | 56 | 1014.3 |
| 20260506173646 | 58 | 90 | 1.0 | 4.0 | 0.00 | 0.00 | 0.00 | 55 | 1014.2 |
| 20260506172520 | 58 | 68 | 2.0 | 3.0 | 0.00 | 0.00 | 0.00 | 53 | 1014.4 |
| 20260506171529 | 59 | 113 | 1.0 | 4.0 | 0.00 | 0.00 | 0.00 | 51 | 1014.4 |
| 20260506170520 | 59 | 90 | 1.0 | 5.0 | 0.00 | 0.00 | 0.00 | 53 | 1014.2 |
| 20260506165540 | 59 | 90 | 2.0 | 5.0 | 0.00 | 0.00 | 0.00 | 53 | 1014.3 |
| 20260506164520 | 59 | 90 | 3.0 | 6.0 | 0.00 | 0.00 | 0.00 | 54 | 1014.1 |
| 20260506163540 | 59 | 113 | 2.0 | 5.0 | 0.00 | 0.00 | 0.00 | 55 | 1014.1 |
| 20260506162519 | 59 | 113 | 2.0 | 4.0 | 0.00 | 0.00 | 0.00 | 54 | 1014.0 |
| 20260506161518 | 59 | 135 | 2.0 | 6.0 | 0.00 | 0.00 | 0.00 | 51 | 1014.0 |
| 20260506160520 | 59 | 113 | 2.0 | 4.0 | 0.00 | 0.00 | 0.00 | 53 | 1014.1 |
| 20260506155520 | 59 | 135 | 2.0 | 4.0 | 0.00 | 0.00 | 0.00 | 51 | 1014.3 |
| 20260506154520 | 59 | 135 | 2.0 | 5.0 | 0.00 | 0.00 | 0.00 | 52 | 1014.3 |
| 20260506153520 | 59 | 45 | 2.0 | 7.0 | 0.00 | 0.00 | 0.00 | 55 | 1014.4 |
| 20260506152539 | 59 | 135 | 3.0 | 5.0 | 0.00 | 0.00 | 0.00 | 52 | 1014.3 |
| 20260506151520 | 59 | 68 | 2.0 | 4.0 | 0.00 | 0.00 | 0.00 | 52 | 1014.3 |
| 20260506150521 | 60 | 0 | 3.0 | 5.0 | 0.00 | 0.00 | 0.00 | 52 | 1014.4 |
| 20260506145524 | 60 | 68 | 3.0 | 6.0 | 0.00 | 0.00 | 0.00 | 51 | 1014.5 |
| 20260506144519 | 60 | 90 | 2.0 | 7.0 | 0.00 | 0.00 | 0.00 | 51 | 1014.6 |
| 20260506143520 | 61 | 113 | 2.0 | 6.0 | 0.00 | 0.00 | 0.00 | 48 | 1014.5 |
| 20260506142520 | 61 | 0 | 2.0 | 5.0 | 0.00 | 0.00 | 0.00 | 53 | 1014.6 |
| 20260506141539 | 61 | 135 | 2.0 | 6.0 | 0.00 | 0.00 | 0.00 | 51 | 1014.6 |
| 20260506140520 | 60 | 203 | 3.0 | 6.0 | 0.00 | 0.00 | 0.00 | 51 | 1014.6 |
| 20260506135540 | 60 | 158 | 3.0 | 7.0 | 0.00 | 0.00 | 0.00 | 49 | 1014.9 |
| 20260506134519 | 61 | 68 | 3.0 | 7.0 | 0.00 | 0.00 | 0.00 | 51 | 1014.9 |
| 20260506133519 | 61 | 90 | 3.0 | 8.0 | 0.00 | 0.00 | 0.00 | 50 | 1015.1 |
| 20260506132519 | 61 | 68 | 2.0 | 5.0 | 0.00 | 0.00 | 0.00 | 52 | 1014.9 |
| 20260506131539 | 60 | 90 | 3.0 | 7.0 | 0.00 | 0.00 | 0.00 | 56 | 1015.0 |
| 20260506130520 | 59 | 45 | 2.0 | 6.0 | 0.00 | 0.00 | 0.00 | 57 | 1015.1 |
| 20260506125520 | 59 | 68 | 3.0 | 8.0 | 0.00 | 0.00 | 0.00 | 56 | 1015.1 |
| 20260506124524 | 58 | 135 | 2.0 | 4.0 | 0.00 | 0.00 | 0.00 | 54 | 1015.2 |
| 20260506123520 | 58 | 113 | 4.0 | 8.0 | 0.00 | 0.00 | 0.00 | 54 | 1015.1 |
| 20260506122519 | 57 | 180 | 2.0 | 5.0 | 0.00 | 0.00 | 0.00 | 58 | 1015.0 |
| 20260506121519 | 57 | 45 | 3.0 | 6.0 | 0.00 | 0.00 | 0.00 | 55 | 1014.9 |
| 20260506120518 | 57 | 90 | 3.0 | 9.0 | 0.00 | 0.00 | 0.00 | 56 | 1015.0 |
| 20260506115519 | 57 | 68 | 4.0 | 7.0 | 0.00 | 0.00 | 0.00 | 60 | 1015.0 |
| 20260506114519 | 56 | 68 | 3.0 | 7.0 | 0.00 | 0.00 | 0.00 | 61 | 1015.1 |